World > North America > United States > New York   Town of Brookhaven, NY

Hourly Stony Brook, NY Regional Weather

Feedback E-mail the Weather

Latest News

Stony Brook, NY Weather Maps

°F °C°F °C
Stony Brook Weather Map
UTC Time: 5/25/2022, 21:55
Your Time:

Stony Brook, NY Regional Weather

Expires:202205252200;;575921
ASUS41 KALY 252110
RWRALY

NEW YORK STATE HOURLY WEATHER ROUNDUP
NATIONAL WEATHER SERVICE ALBANY NY
500 PM EDT WED MAY 25 2022

NOTE: "FAIR" INDICATES FEW OR NO CLOUDS BELOW 12,000 FEET WITH NO
SIGNIFICANT WEATHER AND/OR NO OBSTRUCTIONS TO VISIBILITY.


NYZ032-033-038>043-046>054-057>066-NYZ062>081-082-084-252200-
EAST

  
CITY           SKY/WX    TMP DP  RH WIND       PRES   REMARKS
ALBANY         PTSUNNY   76  48  37 S9        30.27F                  
GLENS FALLS    MOSUNNY   74  52  46 S5        30.26F                  
POUGHKEEPSIE   PTSUNNY   74  51  44 SE9       30.29F                  
NEWBURGH       MOSUNNY   72  50  46 SE8G17    30.31F                  
MONTGOMERY     MOSUNNY   73  51  46 S12       30.29F                  
WHITE PLAINS   SUNNY     68  48  48 SE9       30.34F                  
ISLIP          PTSUNNY   61  42  49 SE13      30.37F                  
NEW YORK CITY  MOSUNNY   67  46  47 S13       30.34F                  
CENTRAL PARK   SUNNY     64  47  53 VRB5      30.38F                  
$$


SKY/WX - Weather  TMP - Temperature  DP - Dew Point  RH - Humidity
WIND - Wind Direction/Speed PRES - Barometric Pressure VSB - Visibility
WCI - Wind Chill Index E13G22 Wind - East Wind 13 mph/Gusts of 22 mph

Trending Headlines

Stony Brook Radar Loop



Stony Brook Quick Facts


National Two Day Weather Forecast


E-mail the Stony Brook Weather Forecast

Voice your opinion or tell us about page issues...